シューメーカー-レヴィ第3彗星

129P/Shoemaker-Levy 3 (2005)

English version
Home page
Updated on April 23, 2006

---------------------------------------------------------------------

・ プロフィール

・ 写真集

・ 軌道要素

Epoch 2005 May 30.0 TT = JDT 2453520.5
T 2005 June 4.7298 TT                                   MPCN
q   2.806948             (2000.0)            P               Q
n   0.1362959      Peri.  181.6731      -0.5778356      -0.8129051
a   3.739505       Node   303.6319      +0.7498169      -0.4935602
e   0.249380       Incl.    5.0120      +0.3223052      -0.3091660
P   7.23
From 234 observations 1991-1999, mean residual 0".6.

・ 星図

・ 光度変化

        m1 = 8.8 + 5 logΔ + 15 log r

---------------------------------------------------------------------

軌道要素はMPCのEphemerides and Orbital Elementsに掲載されたものです。
星図は StellaNavigator Ver.2.0 for Windows (アストロアーツ 編著 / アスキー出版局刊) で作成したものです。
光度グラフはComet for Windowsで作成したものです。

---------------------------------------------------------------------

Copyright(C) Seiichi Yoshida (comet@aerith.net). All rights reserved.